Regional Weather Roundup
Issued by NWS Portland, ME

Current Version | Previous Version | Text Only | Print | Product List | Glossary Off
Versions: 1 2 3 4 5 6 7 8 9 10 11 12 13 14 15 16 17 18 19 20 21 22 23 24 25 26 27 28 29 30 31 32 33 34 35 36 37 38 39 40 41 42 43 44 45 46 47 48 49 50
000 ASUS41 KGYX 241105 RWRGYX WEATHER ROUNDUP FOR MAINE AND NEW HAMPSHIRE NATIONAL WEATHER SERVICE GRAY ME 700 AM EDT SAT JUN 24 2017 MEZ002-005-006-010-012-015-018-020-021-024-026-027-029-241200- MAINE CITY SKY/WX TMP DP RH WIND PRES REMARKS PORTLAND CLOUDY 70 68 93 SW10 29.47R SANFORD CLOUDY 75 72 90 SW9 29.50R BAR HARBOR LGT RAIN 61 61 100 S14 29.49R VSB 1/4 WISCASSET CLOUDY 67 66 97 SW7 29.49R FOG ROCKLAND CLOUDY 64 64 100 SW10G21 29.48S FOG FRYEBURG LGT RAIN 69 69 100 W5 29.50R FOG LEWISTONAUBURN N/A 73 71 93 S10 29.45S AUGUSTA CLOUDY 68 66 93 S6 29.46R FOG WATERVILLE LGT RAIN 68 67 96 VRB5 29.43R FOG BANGOR CLOUDY 65 64 97 S9 29.45S FOG GREENVILLE N/A 64 64 100 CALM 29.46F MILLINOCKET LGT RAIN 64 64 100 CALM 29.44F FOG HOULTON FOG 63 63 100 SW6 29.43R VSB 1/2 PRESQUE ISLE LGT RAIN 63 62 97 SE7 29.43S FOG FRENCHVILLE LGT RAIN 60 60 100 SE5 29.41R VSB<1/4 CARIBOU CLOUDY 63 62 97 S6 29.41S FOG $$ NHZ002-005-008-009-011-012-014-241200- NEW HAMPSHIRE CITY SKY/WX TMP DP RH WIND PRES REMARKS PORTSMOUTH PTSUNNY 76 71 83 SW12G18 29.49R ROCHESTER CLOUDY 74 70 87 VRB3 29.50R NASHUA LGT RAIN 76 72 87 W3 29.53R MANCHESTER LGT RAIN 77 69 76 SW9 29.51R CONCORD LGT RAIN 74 71 91 SW7 29.52R LACONIA LGT RAIN N/A N/A N/A SW14 29.52R PLYMOUTH LGT RAIN 69 66 90 CALM 29.52R BERLIN LGT RAIN 68 64 87 CALM 29.52R WHITEFIELD LGT RAIN 67 64 90 CALM 29.54R JAFFREY LGT RAIN 72 72 100 SW10 29.57R KEENE RAIN 72 69 90 SW6 29.56R LEBANON CLOUDY 72 70 93 CALM 29.52R MT WASHINGTON LGT RAIN 50 50 100 W54 N/A VSB 0 $$ VTZ005-007-008-241200- VERMONT CITY SKY/WX TMP DP RH WIND PRES REMARKS ST JOHNSBURY N/A 67 67 100 MISG 29.50R MONTPELIER CLOUDY 67 67 100 CALM 29.57R BURLINGTON CLOUDY 70 69 97 CALM 29.51R $$ MAZ007-012-024-CTZ003-RIZ002-NYZ038-NYZ072-241200- SOUTHERN NEW ENGLAND AND NY CITY SKY/WX TMP DP RH WIND PRES REMARKS BOSTON CLOUDY 75 71 87 SW13 29.53S WORCESTER CLOUDY 71 68 90 SW13 29.58S NANTUCKET CLOUDY 66 66 100 SW13 29.65S FOG PROVIDENCE CLOUDY 74 72 93 SW12 29.58S HARTFORD CLOUDY 74 72 93 S9 29.55S ALBANY LGT RAIN 72 67 84 SW3 29.56S NEW YORK CITY HVY RAIN 72 72 100 NE3 29.57F FOG $$ ANZ081-ANZ082-ANZ150-NHZ014-MEZ023>029-241200- COASTAL MARINE OBSERVATIONS STATION/POSITION TIME TEMP WIND PRES WAVE AIR SEA DIR/SP/G HT/PER (UTC) (F) (DEG/KT/KT) (MB) (FT/S) MATINICUS ROCK 1000 58 200/ 24/ 26 997.9S ISLE OF SHOALS 1000 69 200/ 25/ 27 998.3R JEFFREYS LEDGE 1006 60 N/A 4/ 6 CASHES LEDGE BUO 0950 63 59 998.9 6/ 6 GEORGES BANK BUO 0950 61 53 1006.8 5/ 5 $$ .............KEY.............. WCI - WIND CHILL TC - TEMPERATURE IN CELSIUS VSB - VISIBILITY IN MILES HX - HEAT INDEX FAIR- INDICATES FEW OR NO CLOUDS BELOW 12,000 FT, WITH NO SIGNIFICANT WEATHER AND/OR OBSTRUCTIONS TO VISIBILITY.

USA.gov is the U.S. government's official web portal to all federal, state and local government web resources and services.